Probability
0 0 0 0 0 0 0 0 0 0 0 0 0 0 0 0 0 0 0 0 0 0 0 0 0 0 0 0 0 0 0 0 1 2 1 0 0 0 0 0 0 0 0 0
0 0 0 0 0 0 0 0 0 0 0 0 0 0 0 0 0 0 0 0 0 0 0 0 0 0 0 0 0 0 0 0 1 2 2 1 0 0 0 0 0 0 0 0
0 0 0 0 0 0 0 0 0 0 0 0 0 0 0 0 0 0 0 0 0 0 0 0 0 0 0 0 0 0 0 0 1 2 2 1 0 0 0 0 0 0 0 0
0 0 0 0 0 0 0 0 0 0 0 0 0 0 0 0 0 0 0 0 0 0 0 0 0 0 0 0 0 0 0 0 0 1 1 1 0 0 0 0 0 0 0 0
0 0 0 0 0 0 0 0 0 0 0 0 0 0 0 0 0 0 0 0 0 0 0 0 0 0 0 0 0 0 0 0 0 0 0 0 0 0 0 0 0 0 0 0
0 0 0 0 0 0 0 0 0 0 0 0 0 0 0 0 0 0 0 0 0 0 0 0 0 0 0 0 0 0 0 0 0 0 0 0 0 0 0 0 0 0 0 0
0 0 0 0 0 0 0 0 0 0 0 0 0 0 0 0 0 0 0 0 0 0 0 0 0 0 0 0 0 0 0 0 0 0 0 0 0 0 0 0 0 0 0 0
0 0 0 0 0 0 0 0 0 0 0 0 0 0 0 0 0 0 0 0 0 0 0 0 0 0 0 0 0 0 0 0 0 0 0 0 0 0 0 0 0 0 0 0
0 0 0 0 0 0 0 0 0 0 0 0 0 0 0 0 0 0 0 0 0 0 0 0 0 0 0 0 0 0 0 0 0 0 0 0 0 0 0 0 0 0 0 0
0 0 0 0 0 0 0 0 0 0 0 0 0 0 0 0 0 0 0 0 0 0 0 0 0 0 0 0 0 0 0 0 0 0 0 0 0 0 0 0 0 0 0 0
0 0 0 0 0 0 0 0 0 0 0 0 0 0 0 0 0 0 0 0 0 0 0 0 0 0 0 0 0 0 1 1 1 0 0 0 0 0 0 0 0 0 0 0
0 0 0 0 0 0 0 0 0 0 0 0 0 0 0 0 0 0 0 0 0 0 0 0 0 0 0 0 0 1 2 2 1 0 0 0 0 0 0 0 0 0 0 0
0 0 0 0 0 0 0 0 0 0 0 0 0 0 0 0 0 0 0 0 0 0 0 0 0 0 0 0 0 1 2 1 0 0 0 0 0 0 0 0 0 0 0 0
0 0 0 0 0 0 0 0 0 0 0 0 0 0 0 0 0 0 0 0 0 0 0 0 0 0 0 0 0 1 1 0 0 0 0 0 0 0 0 0 0 0 0 0
0 0 0 0 0 0 0 0 0 0 0 0 0 0 0 0 0 0 0 0 0 0 0 0 0 0 0 0 0 0 0 0 0 0 0 0 0 0 0 0 0 0 0 0
0 0 0 0 0 0 0 0 0 0 0 0 0 0 0 0 0 0 0 0 0 0 0 0 0 0 0 0 0 0 0 0 0 0 0 0 0 0 0 0 0 0 0 0
0 0 0 0 0 0 0 0 0 0 0 0 0 0 0 0 0 0 0 0 0 0 0 0 0 0 0 0 0 0 0 0 0 0 0 0 0 0 0 0 0 0 0 0
0 0 0 0 0 0 0 0 0 0 0 0 0 0 0 0 0 0 0 0 0 0 0 0 0 0 0 0 0 0 0 0 0 0 0 0 0 0 0 0 0 0 0 0
0 0 0 0 0 0 0 0 0 0 0 0 0 0 0 0 0 0 0 0 0 0 0 0 0 0 0 0 0 0 0 0 0 0 0 0 0 0 0 0 0 0 0 0
0 0 0 0 0 0 0 0 0 0 0 0 0 0 0 0 0 0 0 0 0 0 0 0 0 0 0 0 0 0 0 0 0 0 0 0 0 0 0 0 0 0 0 0
0 0 0 0 0 0 0 0 0 0 0 0 0 0 0 0 0 0 0 0 0 0 0 0 0 0 0 0 0 0 0 0 0 0 0 0 0 0 0 0 0 0 0 0
0 0 0 0 0 0 0 0 0 0 0 0 0 0 0 0 0 0 0 0 0 0 0 0 0 0 0 0 0 0 0 0 0 0 0 0 0 0 0 0 0 0 0 0
0 0 0 0 0 0 0 0 0 0 0 0 0 0 0 0 0 0 0 0 0 0 0 0 0 0 0 0 0 0 0 0 0 0 0 0 0 0 0 0 0 0 0 0
0 0 0 0 0 0 0 0 0 0 0 0 0 0 0 0 0 0 0 0 0 0 0 0 0 0 0 0 0 0 0 0 0 0 0 0 0 0 0 0 0 0 0 0
0 0 0 0 0 0 0 0 0 0 0 0 0 0 0 0 0 0 0 0 0 0 0 0 0 0 0 0 0 0 0 0 0 0 0 0 0 0 0 0 0 0 0 0
0 0 0 0 0 0 0 0 0 0 0 0 0 0 0 0 0 0 0 0 0 0 0 0 0 0 0 0 0 0 0 0 0 0 0 0 0 0 0 0 0 0 0 0
Wind_Speed
2 5 8 9 9 4 3 6 7 5 1 4 9 12 12 8 7 8 7 6 6 6 5 3 3 3 3 3 4 4 4 4 3 3 3 2 2 2 2 1 2 2 2 3
4 8 6 4 6 6 6 7 7 4 1 4 8 13 11 8 7 7 7 6 6 5 3 2 2 2 3 3 4 4 5 4 5 3 3 1 2 2 1 1 2 2 2 3
8 2 5 6 7 8 9 10 8 5 3 3 7 10 7 5 5 5 5 5 5 5 5 3 2 2 3 3 4 4 4 4 4 4 3 2 2 2 1 1 1 1 2 2
6 3 6 7 8 9 8 6 6 5 5 4 3 8 6 5 5 6 5 4 4 4 5 4 3 3 3 3 3 4 5 4 4 4 4 5 3 3 2 2 1 2 2 2
5 5 7 8 7 8 3 2 4 5 5 6 6 8 7 4 7 7 6 4 4 4 4 4 4 4 3 3 3 3 4 4 4 4 5 5 4 2 2 2 2 2 2 2
3 2 4 4 2 5 5 4 2 2 4 8 8 9 8 6 7 5 4 4 3 3 3 3 3 3 3 2 2 3 4 4 4 5 5 5 4 3 3 3 2 2 1 1
4 4 3 3 5 6 6 4 3 4 6 7 4 8 9 3 3 3 3 3 2 2 3 3 3 2 3 3 3 3 4 4 4 5 4 4 4 4 4 3 3 2 2 1
7 6 7 6 6 8 9 7 5 5 5 3 4 10 5 0 1 2 3 2 2 1 2 2 3 3 3 3 3 4 4 4 4 5 4 4 4 3 3 3 3 3 2 2
7 5 3 4 3 6 8 7 2 1 0 4 7 6 6 3 2 3 3 3 3 2 2 2 1 2 2 3 3 4 4 4 4 4 4 4 4 3 3 3 3 2 2 2
3 3 3 2 3 3 3 5 5 5 5 7 7 7 6 5 5 4 4 5 4 3 2 2 2 2 2 3 3 3 4 4 4 4 3 3 3 3 3 3 3 2 2 2
3 3 3 5 9 10 8 7 6 5 4 6 6 5 2 5 6 6 5 4 3 2 2 2 1 1 1 1 2 3 3 3 3 3 3 3 3 3 3 3 3 3 2 2
4 3 3 5 2 2 6 8 9 7 6 6 5 6 2 3 3 3 3 2 3 2 2 1 1 0 0 1 1 2 2 3 3 3 4 3 3 3 2 2 2 2 3 2
5 4 3 3 4 4 6 7 8 4 3 6 8 7 2 2 2 3 3 3 3 2 1 1 1 0 0 1 1 1 2 2 3 3 4 3 3 3 2 2 2 2 2 2
3 5 7 8 3 6 8 10 12 10 8 9 13 11 6 5 5 4 4 4 3 3 2 1 1 1 1 1 1 1 2 2 3 3 4 3 3 3 3 2 2 2 2 3
3 5 5 6 5 5 8 11 15 17 15 13 13 13 12 9 8 6 5 4 4 3 3 3 2 2 1 1 1 1 1 2 3 3 3 3 3 2 2 2 2 2 2 3
2 3 2 5 5 6 10 13 16 18 17 18 16 16 10 8 7 7 6 5 6 5 4 3 3 3 2 2 2 2 2 2 2 3 3 2 2 2 2 2 2 2 2 3
4 4 4 5 2 4 12 14 18 15 15 15 18 15 6 7 7 7 7 7 7 6 5 4 4 4 3 3 2 3 2 2 2 3 3 3 3 3 3 2 2 3 3 3
6 4 3 2 2 12 7 2 10 14 14 15 13 9 8 8 5 4 5 6 6 5 5 5 4 3 3 2 2 2 2 3 3 3 3 3 3 3 3 3 3 3 3 3
7 7 4 4 6 11 8 4 6 10 11 12 15 13 8 3 2 5 4 5 5 5 4 4 3 3 2 2 2 2 2 2 3 3 3 3 3 3 3 4 4 4 3 4
4 6 5 6 7 10 5 1 1 3 7 5 8 10 7 5 6 5 2 3 3 3 2 2 2 1 2 2 2 2 2 2 2 3 3 3 3 4 4 4 4 3 3 4
6 7 10 10 10 10 5 1 3 6 4 1 3 5 6 7 6 1 1 1 2 2 1 1 2 1 1 1 2 2 2 2 3 2 2 2 3 4 4 3 3 3 3 3
10 9 10 8 10 12 3 6 7 3 2 0 1 2 3 4 2 2 1 1 1 1 1 1 1 1 0 0 2 2 2 2 2 1 2 2 3 3 2 3 3 3 3 4
9 8 7 10 9 2 5 5 3 1 2 2 1 2 2 2 2 2 2 2 2 1 1 1 2 1 0 0 1 2 2 1 1 1 2 2 2 2 2 3 3 2 3 3
6 4 5 6 9 7 6 6 5 4 4 3 2 2 3 3 3 3 3 2 2 2 2 1 1 2 2 1 1 2 1 1 1 2 2 2 2 2 2 2 2 2 3 3
7 7 6 8 7 5 8 9 9 6 4 4 4 4 4 4 4 4 4 4 3 2 2 2 2 2 2 2 2 2 1 1 2 2 2 2 2 2 2 2 2 3 3 4
7 9 10 10 8 8 7 5 6 7 7 7 5 4 4 4 5 4 4 3 3 2 2 2 2 3 3 2 2 2 2 2 2 2 2 2 2 2 2 2 2 3 4 6
Wind_Direction
147 190 208 207 212 234 216 224 245 256 263 254 255 265 272 271 256 254 255 254 252 253 260 254 241 227 217 209 210 204 197 189 178 174 176 171 174 165 155 147 150 157 153 162
169 219 219 186 189 200 214 234 249 258 233 264 277 274 271 259 249 250 254 255 254 255 254 248 232 209 207 205 206 204 200 192 191 187 179 180 159 162 154 143 148 158 157 159
205 190 179 176 186 203 222 231 239 250 295 246 286 271 243 233 231 240 248 256 260 253 254 247 227 219 213 210 209 205 201 196 194 185 165 137 127 124 144 160 161 177 174 167
216 197 178 188 203 205 231 223 224 229 256 259 267 282 254 233 242 239 238 244 258 252 246 246 232 227 224 221 209 205 199 193 185 179 178 176 181 185 192 183 177 178 178 176
203 188 191 205 209 201 205 156 203 230 242 263 232 256 264 217 244 238 230 239 255 261 252 246 239 232 229 219 206 200 192 185 179 179 186 189 188 187 168 165 163 169 174 184
219 208 221 213 187 179 142 127 136 193 222 247 227 231 261 219 229 232 223 234 252 260 254 250 249 239 228 210 196 189 184 180 178 179 185 193 183 175 165 168 168 171 173 189
208 209 198 181 152 161 178 172 194 209 217 238 182 228 253 238 222 227 226 236 259 257 241 237 236 233 222 206 196 189 181 179 178 179 183 195 189 180 179 179 180 174 180 201
200 211 193 193 197 183 193 205 214 229 237 241 198 235 246 183 213 225 228 242 272 284 263 247 242 238 229 213 202 195 189 184 180 183 188 193 187 184 184 185 183 187 193 206
205 207 156 197 218 189 180 206 237 225 352 264 236 249 267 214 224 226 230 244 259 265 265 261 254 246 235 218 207 199 192 188 184 185 188 186 186 191 186 185 191 192 194 195
207 209 194 185 184 204 220 171 170 198 221 246 251 242 232 198 211 215 223 231 243 253 258 261 256 255 243 223 209 198 192 191 186 182 183 184 189 196 191 186 192 198 202 191
209 195 180 185 203 192 175 183 197 196 229 235 254 248 208 199 197 205 218 220 223 234 249 256 261 263 249 210 191 188 189 189 186 185 184 184 188 193 191 192 201 207 211 209
193 192 220 219 211 248 217 205 189 200 212 224 251 262 110 200 199 214 233 224 213 218 239 257 260 271 220 196 183 190 193 193 195 190 186 187 188 186 191 206 213 210 215 219
166 182 192 206 196 201 218 212 208 212 204 210 226 247 125 180 216 228 233 227 215 216 225 256 287 283 219 202 201 207 208 204 198 191 188 188 190 192 198 213 221 219 219 225
180 213 226 232 224 180 208 210 202 199 215 226 233 248 236 234 239 234 230 228 220 223 227 232 243 271 267 225 213 219 220 209 195 189 191 193 195 199 206 213 221 228 228 231
190 228 239 269 281 240 234 222 209 214 224 232 243 243 247 248 248 246 236 228 229 233 236 234 235 244 260 250 225 220 219 204 192 191 196 203 199 195 198 205 218 231 238 242
199 219 220 257 261 258 259 242 224 227 234 242 254 259 255 258 252 247 238 227 231 238 239 235 235 240 253 261 245 220 217 209 198 202 207 206 197 198 204 210 214 222 235 241
188 179 205 247 273 278 254 231 216 217 221 223 236 245 230 235 237 237 236 231 236 239 239 238 237 238 245 249 240 227 215 202 196 204 208 207 205 210 217 218 219 228 235 240
181 179 209 236 198 241 249 213 213 220 230 226 237 245 235 239 249 265 245 234 239 243 243 242 238 242 251 246 231 224 206 194 195 204 215 215 214 219 224 226 231 240 243 243
204 186 193 203 241 268 276 224 199 210 242 228 232 240 244 239 251 251 240 236 240 243 244 237 227 229 237 232 221 203 200 196 203 214 224 227 223 224 227 233 241 247 250 253
199 198 200 206 227 243 252 148 205 189 255 228 217 230 228 188 230 247 208 223 243 249 231 216 214 217 230 233 196 181 193 201 223 237 243 241 234 230 232 238 246 252 255 259
178 197 212 220 236 258 263 204 172 205 250 86 195 216 205 210 234 271 145 221 231 227 216 191 190 210 245 226 182 186 201 236 259 270 261 248 242 242 243 249 251 252 256 261
185 187 201 202 224 246 177 157 199 234 27 86 210 212 209 220 226 224 235 254 260 245 227 201 202 225 275 207 191 200 229 262 274 266 258 256 254 250 243 244 252 250 248 253
210 205 199 204 222 277 167 202 237 308 267 275 261 250 216 222 247 259 260 264 268 256 238 222 217 231 271 247 217 225 259 274 256 250 256 261 261 254 249 239 240 243 243 250
223 222 212 236 251 251 244 255 266 262 263 274 263 236 220 236 245 254 246 250 256 248 239 224 218 235 259 273 266 259 267 247 204 232 256 260 254 257 254 252 246 243 244 249
208 189 214 241 254 268 254 246 249 251 254 261 255 238 234 231 234 232 236 239 241 246 241 224 223 240 260 274 279 288 273 218 219 234 250 261 260 258 253 251 254 253 255 256
205 201 209 233 229 231 248 245 233 235 243 244 245 249 241 229 236 238 238 236 236 240 238 235 239 247 259 260 266 279 268 226 213 226 241 249 256 259 258 257 273 279 277 289